Вернуться в каталог

OPS 0252

АктивенВоенныеLEO
NORAD 13791·PAYLOAD·🇺🇸 United States

Запущен Feb 9, 1983 с Vandenberg Space Force Base

Loading…

Ближайшие Пролёты (ближайшие 24 часа)

TLE

СвежийSource: Space-Track

Эпоха: Sep 14, 2026, 15:35 UTC

1 13791U 83008A   26257.64950850  .00003728  00000-0  50273-3 0  9999
2 13791  63.3113  40.4750 0669462 138.0549 227.3831 13.87752093118701

Отслеживайте OPS 0252 в реальном времени с AllMySat

Download on the App Store